Location: Newark
(44.6028°N, 124.0883°W)
Time: 17:29:52
(UTC+00:00)

A-11 Canister half - Pass Details

Date: 28 October 2019
Orbit: 1514 x 1685 km, 47.2° (Epoch: 21 November)

Event Time Altitude Azimuth Distance (km) Brightness Sun altitude
Exits shadow 12:51:37 29° 288° (WNW) 2,641 9.7 -21.3°
Maximum altitude 12:57:26 85° 202° (SSW) 1,596 9.0 -20.3°
Drops below altitude 10° 13:06:55 10° 115° (ESE) 3,724 12.0 -18.6°
Sets 13:09:55 0° 115° (ESE) 4,688 12.7 -18.1°
